Showing default

TOMORROW-R2, 56962

Orbit data source: Space-Track

TOMORROW-R2, 56962 is a payload satellite owned by Tomorrow.io (US) in SSO that was launched on Mon, 12 Jun 2023 UTC via an FALCON 9 launch vehicle from the Air Force Western Test Range (AFWTR). Payload-class satellites include a variety of spacecraft equipped with specific instruments for various scientific and technological missions. These include communications satellites like Starlink; space stations such as the ISS; scientific satellites like the Hubble; Earth observation satellites from companies like Planet Labs, Umbra, and HawkEye 360; GPS; miniature CubeSats for education and research; and military/defense satellites.

Loading next visibility...
Identifier
56962, 2023-084AG
Orbit
SSO
Last TLE update
8 hours ago
Origin
Manufacturer
Astro Digital
Mission
Operational Commercial Radar Imaging
Bus & Motor
CORVUS-XL, Unknown motor
Mass
85 kg wet, 85 kg dry
Launch date (UTC)
2023-06-12 (2 years ago)
Launch vehicle
FALCON 9
Launch site
Air Force Western Test Range (AFWTR)
Object type
Payload
Rocket body
Debris
Shape & HBR
Box + 1 Dish, 1.0 m
Radar Cross Section
0.425 m², Medium (>0.1 m² and < 1m²)

Expand to show TLE details & history

TLE from 8 hours ago
0 TOMORROW-R2
1 56962U 23084AG  25199.63026363  .00018115  00000-0  38349-3 0  9996
2 56962  97.5758 333.5729 0007639  48.1832 312.0068 15.45148046116909
Epoch: 2025-07-18T15:07Z
TLE epoch observation values (Epoch: 2025-07-18T15:07:34.777Z)
Latitude
0.00002°
Longitude
169.99903°
Altitude
430.583 km
Speed
7.655 km/s
True Right ascension
22h 14m 17s
True Declination
0° 00' 00"
Sunlit
Object was in full shadow at epoch
Visualization orbit readout
Latitude
34.27937°
Longitude
165.17096°
Altitude
430.482 km
Speed
7.659 km/s
Apparent Right ascension
22h 48m 32s
Apparent Declination
-1° 26' 21"
Sunlit
Object is in full shadow
Visualization observer readout
Local Sidereal Time
11:50:18
Azimuth
23.956° NE
Elevation
-49.042°
Doppler factor
1
Orbital elements
Apogee altitude
433.082 km
Perigee altitude
422.684 km
Semi-major axis
6,806.02 km
Eccentricity
0.00076
Inclination
97.5758°
RAAN
333.5729°
Arg. of periapsis
48.1832°
True anomaly
311.94171°
Mean anomaly
312.0068°
Eccentric anomaly
311.97426°
Mean motion
3.86548 °/min
Orbital period
93.13 mins
BSTAR
0.00038349
Loading maneuver chart data...
Loading SW <> Apogee altitude chart data...
Loading historical data...
Loading historical data...
Loading historical data...
Loading historical data...
Loading historical data...
Loading historical data...
Loading historical data...
|